Retour au catalogue

COSMOS 970 DEB

ActifLEO
NORAD 65000·DEBRIS·🇷🇺 Russia

Lancé Dec 21, 1977 depuis Baikonur Cosmodrome

Loading…

Prochains Passages (prochaines 24 heures)

TLE

FraisSource: Space-Track

Époque: Sep 14, 2026, 15:02 UTC

1 65000U 77121DM  26257.62671184  .00000225  00000-0  60180-3 0  9993
2 65000  65.9706 115.2229 0119230 179.9073 180.2010 13.30683749615930

Suivez COSMOS 970 DEB en temps réel avec AllMySat

Download on the App Store